Regional Weather Roundup
Issued by NWS Sioux Falls, SD

Home | Current Version | Previous Version | Text Only | Print | Product List | Glossary Off
Versions: 1 2 3 4 5 6 7 8 9 10 11 12 13 14 15 16 17 18 19 20 21 22 23 24 25 26 27 28 29 30 31 32 33 34 35 36 37 38 39 40 41 42 43 44 45 46 47 48 49 50

000
ASUS43 KFSD 270002
RWRFSD

WEATHER ROUNDUP FOR SE SOUTH DAKOTA/SW MINNESOTA/NW IOWA
NATIONAL WEATHER SERVICE SIOUX FALLS SD
700 PM CDT TUE JUL 26 2016

NOTE: "FAIR" INDICATES FEW OR NO CLOUDS BELOW 12,000 FEET WITH NO
SIGNIFICANT WEATHER AND OR OBSTRUCTIONS TO VISIBILITY.


SDZ038>040-050-052>070-270100-
SOUTHEAST SOUTH DAKOTA

CITY           SKY/WX    TMP DP  RH WIND       PRES   REMARKS
BROOKINGS      CLOUDY    75  71  87 NE5       29.97F
CHAMBERLAIN    LGT RAIN  78  71  78 N7G17     29.92R
6HR MIN TEMP:  75; 6HR MAX TEMP:  88; 6HR PCP:  0.01;

HURON          CLOUDY    80  66  62 SE13      29.91F
6HR MIN TEMP:  70; 6HR MAX TEMP:  89; 6HR PCP:  0.01;

MADISON        FAIR      79  75  89 E3        29.99F
MITCHELL       MOSUNNY   86  61  42 S9        29.95R
6HR MIN TEMP:  86; 6HR MAX TEMP:  90;

SIOUX FALLS    PTSUNNY   84  65  52 S12       29.97F
6HR MIN TEMP:  83; 6HR MAX TEMP:  86;

WINNER         MOCLDY    88  61  40 E7        29.89F
YANKTON        SUNNY     84  64  51 SE13      29.95F
$$

MNZ071-072-080-081-089-090-097-098-270100-
SOUTHWEST MINNESOTA

CITY           SKY/WX    TMP DP  RH WIND       PRES   REMARKS
FAIRMONT       SUNNY     82  68  61 S6        30.00F
JACKSON        SUNNY     82  63  51 S7        30.02F
LUVERNE        PTSUNNY   79  68  69 S6        29.99F
MARSHALL       CLOUDY    84  70  62 S6        29.96F
6HR MIN TEMP:  83; 6HR MAX TEMP:  88;

MONTEVIDEO     CLOUDY    79  64  61 CALM      29.96F
REDWOOD FALLS  PTSUNNY   85  67  54 S8        29.96F
TRACY          CLOUDY    82  72  69 S5        29.98F
WINDOM         MOSUNNY   82  66  57 S7        30.00F
WORTHINGTON    MOSUNNY   80  69  69 S8        30.02
$$

IAZ001>003-012>014-020>022-031-032-NEZ013-014-SDZ071-270100-
NORTHWEST IOWA

CITY           SKY/WX    TMP DP  RH WIND       PRES   REMARKS
CHEROKEE       SUNNY     83  66  55 SE6       30.01S
DENISON        SUNNY     82  68  61 SE6       29.99F
ESTHERVILLE    SUNNY     81  70  69 S6        30.01F
LE MARS        SUNNY     84  66  54 SE7       30.00S
SHELDON        SUNNY     81  70  69 MISG      29.99F
SIOUX CITY     SUNNY     86  65  49 SE10      29.99R
6HR MIN TEMP:  86; 6HR MAX TEMP:  89;

SPENCER        SUNNY     83  68  60 SE10      30.01F
6HR MIN TEMP:  83; 6HR MAX TEMP:  86;

STORM LAKE     SUNNY     81  68  65 SE6       30.03F
$$

ABBREVIATIONS USED IN REMARKS
   TC - TEMPERATURE IN CELSIUS
  WCI - WIND CHILL INDEX
   HX - HEAT INDEX
  VSB - VISIBILITY





USA.gov is the U.S. government's official web portal to all federal, state and local government web resources and services.